Time,TemperatureF,DewpointF,PressureIn,WindDirection,WindDirectionDegrees,WindSpeedMPH,WindSpeedGustMPH,Humidity,HourlyPrecipIn,Conditions,Clouds,dailyrainin,SoftwareType,DateUTC
2013-07-26 00:02:00,59.0,58.0,-100.00,SE,137,2.0,5.0,97,0.00,,,0.34,,2013-07-26 07:02:00,
2013-07-26 00:12:00,59.0,58.0,-100.00,SE,137,2.0,5.0,97,0.00,,,0.34,,2013-07-26 07:12:00,
2013-07-26 00:43:00,58.0,57.0,-100.00,East,89,2.0,4.0,98,0.00,,,0.34,,2013-07-26 07:43:00,
2013-07-26 00:53:00,58.0,57.0,-100.00,East,89,2.0,4.0,98,0.00,,,0.34,,2013-07-26 07:53:00,
2013-07-26 01:02:00,58.0,57.0,-100.00,East,89,2.0,4.0,98,0.00,,,0.34,,2013-07-26 08:02:00,
2013-07-26 01:12:00,58.0,57.0,-100.00,East,89,2.0,4.0,98,0.00,,,0.34,,2013-07-26 08:12:00,
2013-07-26 01:44:00,58.0,57.0,-100.00,NE,56,2.0,5.0,98,0.00,,,0.34,,2013-07-26 08:44:00,
2013-07-26 01:52:00,58.0,57.0,-100.00,NE,56,2.0,5.0,98,0.00,,,0.34,,2013-07-26 08:52:00,
2013-07-26 02:02:00,58.0,57.0,-100.00,NE,56,2.0,5.0,98,0.00,,,0.34,,2013-07-26 09:02:00,
2013-07-26 02:12:00,58.0,57.0,-100.00,NE,56,2.0,5.0,98,0.00,,,0.34,,2013-07-26 09:12:00,
2013-07-26 02:43:00,58.0,57.0,-100.00,SSE,156,1.0,4.0,98,0.00,,,0.34,,2013-07-26 09:43:00,
2013-07-26 02:52:00,58.0,57.0,-100.00,SSE,156,1.0,4.0,98,0.00,,,0.34,,2013-07-26 09:52:00,
2013-07-26 03:02:00,58.0,57.0,-100.00,SSE,156,1.0,4.0,98,0.00,,,0.34,,2013-07-26 10:02:00,
2013-07-26 03:12:00,58.0,57.0,-100.00,SSE,156,1.0,4.0,98,0.00,,,0.34,,2013-07-26 10:12:00,
2013-07-26 03:43:00,57.0,57.0,-100.00,SE,125,1.0,3.0,99,0.00,,,0.34,,2013-07-26 10:43:00,
2013-07-26 03:52:00,57.0,57.0,-100.00,SE,125,1.0,3.0,99,0.00,,,0.34,,2013-07-26 10:52:00,
2013-07-26 04:02:00,57.0,57.0,-100.00,SE,125,1.0,3.0,99,0.00,,,0.34,,2013-07-26 11:02:00,
2013-07-26 04:12:00,57.0,57.0,-100.00,SE,125,1.0,3.0,99,0.00,,,0.34,,2013-07-26 11:12:00,
2013-07-26 04:43:00,56.0,56.0,-100.00,SSE,151,1.0,4.0,99,0.00,,,0.34,,2013-07-26 11:43:00,
2013-07-26 04:52:00,56.0,56.0,-100.00,SSE,151,1.0,4.0,99,0.00,,,0.34,,2013-07-26 11:52:00,
2013-07-26 05:02:00,56.0,56.0,-100.00,SSE,151,1.0,4.0,99,0.00,,,0.34,,2013-07-26 12:02:00,
2013-07-26 05:12:00,56.0,56.0,-100.00,SSE,151,1.0,4.0,99,0.00,,,0.34,,2013-07-26 12:12:00,
2013-07-26 05:43:00,56.0,56.0,-100.00,SE,131,2.0,4.0,99,0.00,,,0.34,,2013-07-26 12:43:00,
2013-07-26 05:53:00,56.0,56.0,-100.00,SE,131,2.0,4.0,99,0.00,,,0.34,,2013-07-26 12:53:00,
2013-07-26 06:02:00,56.0,56.0,-100.00,SE,131,2.0,4.0,99,0.00,,,0.34,,2013-07-26 13:02:00,
2013-07-26 06:12:00,56.0,56.0,-100.00,SE,131,2.0,4.0,99,0.00,,,0.34,,2013-07-26 13:12:00,
2013-07-26 06:43:00,56.0,56.0,-100.00,NE,47,1.0,3.0,99,0.00,,,0.34,,2013-07-26 13:43:00,
2013-07-26 06:53:00,56.0,56.0,-100.00,NE,47,1.0,3.0,99,0.00,,,0.34,,2013-07-26 13:53:00,
2013-07-26 07:02:00,56.0,56.0,-100.00,NE,47,1.0,3.0,99,0.00,,,0.34,,2013-07-26 14:02:00,
2013-07-26 07:12:00,56.0,56.0,-100.00,NE,47,1.0,3.0,99,0.00,,,0.34,,2013-07-26 14:12:00,
2013-07-26 07:43:00,64.0,63.0,-100.00,SE,144,3.0,5.0,98,0.00,,,0.34,,2013-07-26 14:43:00,
2013-07-26 07:53:00,64.0,63.0,-100.00,SE,144,3.0,5.0,98,0.00,,,0.34,,2013-07-26 14:53:00,
2013-07-26 08:02:00,64.0,63.0,-100.00,SE,144,3.0,5.0,98,0.00,,,0.34,,2013-07-26 15:02:00,
2013-07-26 08:12:00,64.0,63.0,-100.00,SE,144,3.0,5.0,98,0.00,,,0.34,,2013-07-26 15:12:00,
2013-07-26 08:43:00,68.0,57.0,-100.00,West,263,1.0,5.0,67,0.00,,,0.34,,2013-07-26 15:43:00,
2013-07-26 08:53:00,68.0,57.0,-100.00,West,263,1.0,5.0,67,0.00,,,0.34,,2013-07-26 15:53:00,
2013-07-26 09:02:00,68.0,57.0,-100.00,West,263,1.0,5.0,67,0.00,,,0.34,,2013-07-26 16:02:00,
2013-07-26 09:14:00,68.0,57.0,-100.00,West,263,1.0,5.0,67,0.00,,,0.34,,2013-07-26 16:14:00,
2013-07-26 09:43:00,71.0,59.0,-100.00,East,85,3.0,7.0,67,0.00,,,0.34,,2013-07-26 16:43:00,
2013-07-26 09:54:00,71.0,59.0,-100.00,East,85,3.0,7.0,67,0.00,,,0.34,,2013-07-26 16:54:00,
2013-07-26 10:02:00,71.0,59.0,-100.00,East,85,3.0,7.0,67,0.00,,,0.34,,2013-07-26 17:02:00,
2013-07-26 10:12:00,71.0,59.0,-100.00,East,85,3.0,7.0,67,0.00,,,0.34,,2013-07-26 17:12:00,
2013-07-26 10:43:00,72.0,58.0,-100.00,WSW,252,6.0,14.0,62,0.00,,,0.34,,2013-07-26 17:43:00,
2013-07-26 10:53:00,72.0,58.0,-100.00,WSW,252,6.0,14.0,62,0.00,,,0.34,,2013-07-26 17:53:00,
2013-07-26 11:02:00,72.0,58.0,-100.00,WSW,252,6.0,14.0,62,0.00,,,0.34,,2013-07-26 18:02:00,
2013-07-26 11:12:00,72.0,58.0,-100.00,WSW,252,6.0,14.0,62,0.00,,,0.34,,2013-07-26 18:12:00,
2013-07-26 11:44:00,71.0,59.0,-100.00,WSW,253,6.0,16.0,65,0.00,,,0.34,,2013-07-26 18:44:00,
2013-07-26 11:52:00,71.0,59.0,-100.00,WSW,253,6.0,16.0,65,0.00,,,0.34,,2013-07-26 18:52:00,
2013-07-26 12:02:00,71.0,59.0,-100.00,WSW,253,6.0,16.0,65,0.00,,,0.34,,2013-07-26 19:02:00,
2013-07-26 12:12:00,71.0,59.0,-100.00,WSW,253,6.0,16.0,65,0.00,,,0.34,,2013-07-26 19:12:00,
2013-07-26 12:43:00,74.0,62.0,-100.00,WSW,252,7.0,17.0,66,0.00,,,0.34,,2013-07-26 19:43:00,
2013-07-26 12:52:00,74.0,62.0,-100.00,WSW,252,7.0,17.0,66,0.00,,,0.34,,2013-07-26 19:52:00,
2013-07-26 13:02:00,74.0,62.0,-100.00,WSW,252,7.0,17.0,66,0.00,,,0.34,,2013-07-26 20:02:00,
2013-07-26 13:12:00,74.0,62.0,-100.00,WSW,252,7.0,17.0,66,0.00,,,0.34,,2013-07-26 20:12:00,
2013-07-26 13:43:00,76.0,62.0,-100.00,WSW,257,6.0,17.0,62,0.00,,,0.34,,2013-07-26 20:43:00,
2013-07-26 13:53:00,76.0,62.0,-100.00,WSW,257,6.0,17.0,62,0.00,,,0.34,,2013-07-26 20:53:00,
2013-07-26 14:02:00,76.0,62.0,-100.00,WSW,257,6.0,17.0,62,0.00,,,0.34,,2013-07-26 21:02:00,
2013-07-26 14:12:00,76.0,62.0,-100.00,WSW,257,6.0,17.0,62,0.00,,,0.34,,2013-07-26 21:12:00,
2013-07-26 15:43:00,77.0,59.0,-100.00,West,267,7.0,14.0,54,0.00,,,0.00,,2013-07-26 22:43:00,
2013-07-26 15:53:00,77.0,59.0,-100.00,West,267,7.0,14.0,54,0.00,,,0.00,,2013-07-26 22:53:00,
2013-07-26 16:02:00,77.0,59.0,-100.00,West,267,7.0,14.0,54,0.00,,,0.00,,2013-07-26 23:02:00,
2013-07-26 16:12:00,77.0,59.0,-100.00,West,267,7.0,14.0,54,0.00,,,0.00,,2013-07-26 23:12:00,
2013-07-26 16:43:00,78.0,59.0,-100.00,West,262,7.0,14.0,53,0.00,,,0.00,,2013-07-26 23:43:00,
2013-07-26 16:53:00,78.0,59.0,-100.00,West,262,7.0,14.0,53,0.00,,,0.00,,2013-07-26 23:53:00,
2013-07-26 17:02:00,78.0,59.0,-100.00,West,262,7.0,14.0,53,0.00,,,0.00,,2013-07-27 00:02:00,
2013-07-26 17:12:00,78.0,59.0,-100.00,West,262,7.0,14.0,53,0.00,,,0.00,,2013-07-27 00:12:00,
2013-07-26 17:43:00,76.0,59.0,-100.00,West,259,6.0,15.0,55,0.00,,,0.00,,2013-07-27 00:43:00,
2013-07-26 17:53:00,76.0,59.0,-100.00,West,259,6.0,15.0,55,0.00,,,0.00,,2013-07-27 00:53:00,
2013-07-26 18:02:00,76.0,59.0,-100.00,West,259,6.0,15.0,55,0.00,,,0.00,,2013-07-27 01:02:00,
2013-07-26 18:12:00,76.0,59.0,-100.00,West,259,6.0,15.0,55,0.00,,,0.00,,2013-07-27 01:12:00,
2013-07-26 18:44:00,72.0,56.0,-100.00,West,260,4.0,9.0,57,0.00,,,0.00,,2013-07-27 01:44:00,
2013-07-26 18:53:00,72.0,56.0,-100.00,West,260,4.0,9.0,57,0.00,,,0.00,,2013-07-27 01:53:00,
2013-07-26 19:02:00,72.0,56.0,-100.00,West,260,4.0,9.0,57,0.00,,,0.00,,2013-07-27 02:02:00,
2013-07-26 19:12:00,72.0,56.0,-100.00,West,260,4.0,9.0,57,0.00,,,0.00,,2013-07-27 02:12:00,
2013-07-26 19:43:00,70.0,55.0,-100.00,East,88,6.0,24.0,60,0.00,,,-99.99,,2013-07-27 02:43:00,
2013-07-26 19:53:00,70.0,55.0,-100.00,East,88,6.0,24.0,60,0.00,,,-99.99,,2013-07-27 02:53:00,
2013-07-26 20:02:00,70.0,55.0,-100.00,East,88,6.0,24.0,60,0.00,,,-99.99,,2013-07-27 03:02:00,
2013-07-26 20:12:00,70.0,55.0,-100.00,East,88,6.0,24.0,60,0.00,,,-99.99,,2013-07-27 03:12:00,
2013-07-26 20:44:00,59.0,54.0,-100.00,SE,135,13.0,26.0,84,0.01,,,0.01,,2013-07-27 03:44:00,
2013-07-26 20:52:00,59.0,54.0,-100.00,SE,135,13.0,26.0,84,0.01,,,0.01,,2013-07-27 03:52:00,
2013-07-26 21:02:00,59.0,54.0,-100.00,SE,135,13.0,26.0,84,0.01,,,0.01,,2013-07-27 04:02:00,
2013-07-26 21:12:00,59.0,54.0,-100.00,SE,135,13.0,26.0,84,0.01,,,0.01,,2013-07-27 04:12:00,
2013-07-26 21:43:00,60.0,55.0,-100.00,SE,132,12.0,23.0,84,0.00,,,0.01,,2013-07-27 04:43:00,
2013-07-26 21:53:00,60.0,55.0,-100.00,SE,132,12.0,23.0,84,0.00,,,0.01,,2013-07-27 04:53:00,
2013-07-26 22:02:00,60.0,55.0,-100.00,SE,132,12.0,23.0,84,0.00,,,0.01,,2013-07-27 05:02:00,
2013-07-26 22:12:00,60.0,55.0,-100.00,SE,132,12.0,23.0,84,0.00,,,0.01,,2013-07-27 05:12:00,
2013-07-26 22:43:00,64.0,54.0,-100.00,SE,125,5.0,20.0,70,0.00,,,0.01,,2013-07-27 05:43:00,
2013-07-26 22:52:00,64.0,54.0,-100.00,SE,125,5.0,20.0,70,0.00,,,0.01,,2013-07-27 05:52:00,
2013-07-26 23:02:00,64.0,54.0,-100.00,SE,125,5.0,20.0,70,0.00,,,0.01,,2013-07-27 06:02:00,
2013-07-26 23:12:00,64.0,54.0,-100.00,SE,125,5.0,20.0,70,0.00,,,0.01,,2013-07-27 06:12:00,
2013-07-26 23:43:00,62.0,54.0,-100.00,SW,228,2.0,9.0,74,0.00,,,0.01,,2013-07-27 06:43:00,
2013-07-26 23:52:00,62.0,54.0,-100.00,SW,228,2.0,9.0,74,0.00,,,0.01,,2013-07-27 06:52:00,